Theta_e
311 312 312 311 311 314 314 313 310 312 313 317 322 327 332 337 337 334 332 332 332 331 333 335 334 333 333 331 330 329 329 328 329 331 332 332 332 332 333 333 333 334 334 334
309 313 313 311 312 314 315 315 315 315 315 322 326 330 332 335 335 334 333 332 333 333 334 334 334 333 332 331 329 328 328 327 329 330 331 330 331 331 332 332 333 334 334 335
307 313 312 308 312 314 316 318 316 312 319 323 324 328 331 334 335 335 334 333 333 333 334 334 333 332 329 330 329 328 327 328 328 330 329 327 325 325 325 330 332 332 333 333
312 314 303 313 320 319 317 318 319 319 321 324 326 329 333 336 336 336 336 335 334 333 334 334 331 329 330 328 328 326 326 327 327 327 325 325 324 324 325 326 326 326 329 330
310 309 311 314 316 316 316 315 320 319 321 325 327 329 331 336 338 339 338 337 335 335 334 332 329 328 326 325 326 325 324 324 322 324 323 323 322 325 327 327 327 327 328 331
312 307 304 314 319 322 321 311 321 322 323 325 327 320 326 334 336 337 338 336 334 333 330 328 328 327 324 323 323 323 324 321 323 325 325 324 325 328 330 328 331 330 329 330
311 309 311 318 319 322 309 314 323 324 326 327 326 329 331 333 334 337 336 334 332 329 327 327 327 324 321 322 323 325 325 321 322 324 326 327 328 329 325 326 329 329 328 330
311 308 305 321 319 314 323 325 326 327 328 329 329 329 330 331 332 332 331 329 328 327 326 327 324 322 321 322 325 326 324 321 323 325 326 326 327 327 325 325 326 327 327 327
314 315 322 325 325 327 325 326 328 329 330 330 329 329 329 330 330 329 328 327 327 326 326 325 323 321 320 323 323 324 323 323 323 323 323 324 324 322 320 324 323 323 322 321
317 321 322 324 326 327 328 329 330 331 330 330 328 328 329 329 328 327 327 326 326 326 324 323 322 321 322 323 323 322 322 322 323 322 322 323 323 323 318 319 320 320 319 318
318 323 324 324 326 327 328 330 330 329 328 326 326 326 327 327 327 327 326 326 326 324 322 321 321 321 321 321 321 319 320 321 319 320 322 321 323 321 319 317 311 314 314 314
316 324 327 326 328 327 327 328 328 326 325 326 326 325 327 326 327 327 326 326 325 324 322 321 320 320 320 320 320 319 318 318 318 315 319 318 318 320 309 309 303 301 300 303
320 324 324 327 327 328 329 328 327 327 326 325 326 326 326 326 327 323 327 326 325 323 322 322 321 319 319 321 319 319 318 320 317 312 315 316 314 314 314 309 303 302 300 301
327 325 323 324 324 328 328 326 324 327 326 326 326 326 326 325 325 325 325 324 323 323 321 322 320 319 319 321 321 320 319 307 316 317 315 315 313 312 312 311 310 313 303 304
325 326 326 328 327 326 326 324 324 323 324 323 325 324 323 323 322 323 323 321 321 320 320 320 320 318 319 319 321 319 319 318 319 318 318 312 313 313 314 314 312 311 312 306
325 324 325 325 324 324 323 323 323 323 323 322 322 322 322 322 322 322 322 323 320 318 320 320 320 319 320 318 319 318 318 317 313 316 317 316 316 314 314 314 313 312 311 310
324 322 323 323 324 323 323 325 325 325 323 323 323 323 322 321 321 321 322 321 322 322 322 322 321 321 322 319 316 315 314 316 318 315 315 316 315 314 314 313 313 313 312 308
327 327 328 328 325 325 324 325 325 327 325 324 325 324 323 322 322 322 323 323 322 322 322 324 324 323 322 321 318 316 315 315 315 315 315 315 315 315 314 314 313 313 313 311
327 327 327 327 326 326 326 324 325 326 325 326 325 324 324 324 325 325 324 323 322 321 322 325 322 320 322 322 320 319 316 316 316 316 316 313 314 315 314 314 313 313 313 313
324 324 324 326 324 327 327 327 326 325 326 325 323 321 320 322 324 324 325 323 324 322 326 324 325 324 323 323 321 319 319 318 317 316 316 316 315 315 315 309 312 313 313 313
320 320 322 324 324 325 325 326 326 327 327 325 322 319 317 323 328 328 325 321 326 326 325 323 323 323 323 323 322 321 320 320 317 315 317 317 317 316 315 315 314 313 313 313
323 322 321 320 321 322 325 325 327 327 327 327 326 326 325 326 328 328 329 325 325 316 322 323 322 320 320 322 321 320 321 321 320 317 316 316 318 317 317 316 314 313 313 314
324 324 324 324 323 323 324 324 322 323 323 325 325 325 323 322 322 321 320 327 326 321 324 321 318 316 317 318 317 320 320 322 321 320 319 319 318 318 318 317 315 314 314 314
322 323 323 324 323 322 322 325 326 326 328 329 329 329 327 321 321 322 324 320 314 316 323 324 321 314 313 317 319 318 320 322 320 322 322 310 320 319 318 319 316 316 316 314
323 323 323 323 322 320 323 324 324 324 325 327 328 328 328 326 323 324 325 325 316 319 325 318 315 314 321 323 323 324 324 324 321 323 323 322 321 320 319 319 318 317 317 318
323 321 322 323 321 321 321 321 320 322 322 322 323 325 325 326 326 325 327 321 326 320 326 326 326 326 326 326 326 326 325 325 318 323 322 324 323 321 317 318 319 318 318 318
321 312 319 320 319 318 319 319 320 320 320 321 320 322 320 323 324 322 317 325 325 325 325 326 326 323 326 327 328 327 325 326 319 325 323 324 322 318 314 316 318 320 319 319
Wind_Speed
16 2 4 10 7 10 12 11 8 10 9 8 2 10 15 16 18 18 17 16 13 11 9 7 6 4 4 3 5 6 5 6 6 6 7 7 8 9 9 9 9 10 11 11
13 7 10 11 10 12 13 9 9 11 11 4 2 7 15 17 18 18 17 15 13 11 10 9 7 5 3 1 4 4 4 6 6 6 7 8 9 10 9 9 9 10 10 11
13 8 9 11 15 15 14 10 10 11 6 4 4 8 14 18 19 19 18 17 14 12 10 8 6 5 2 1 3 3 4 5 5 6 7 7 7 8 8 10 10 10 9 10
1 6 11 2 4 7 12 10 8 8 3 3 1 6 11 14 17 17 16 16 14 12 10 8 7 5 2 1 3 4 4 5 5 6 6 6 7 7 7 8 9 8 9 10
6 11 4 8 5 6 8 11 10 9 4 4 3 5 8 12 14 16 16 15 13 12 11 9 7 5 4 4 4 4 4 4 5 5 5 6 6 7 7 8 8 7 7 9
4 12 11 5 7 2 2 10 4 2 3 7 8 8 7 14 13 14 14 14 13 13 12 10 7 6 5 4 4 4 3 5 5 6 5 6 6 7 7 7 8 7 8 7
9 10 8 8 6 4 10 4 5 2 2 7 7 7 5 10 11 12 13 15 14 13 10 8 7 5 5 3 3 2 3 4 5 6 5 5 6 6 7 7 6 6 6 6
4 6 12 9 8 7 6 4 5 3 3 5 5 7 9 11 13 15 15 16 14 11 9 7 6 5 3 3 0 2 2 3 5 4 5 4 6 4 5 6 7 6 5 6
5 3 4 3 4 4 4 3 4 6 8 9 9 11 12 13 14 14 15 13 11 10 9 7 6 4 4 3 3 3 4 4 4 4 4 4 5 3 5 5 6 6 6 6
5 6 3 4 3 1 1 3 7 10 12 11 12 12 12 12 12 12 11 11 8 8 7 6 5 5 3 2 3 4 5 5 4 5 4 4 7 3 4 6 6 6 7 8
4 2 3 5 4 6 6 9 12 11 10 11 12 11 11 11 11 10 10 8 7 6 5 5 5 5 4 3 3 5 4 5 5 4 3 4 3 4 1 2 5 7 7 8
5 7 3 5 7 7 10 13 13 13 11 9 9 9 9 9 9 9 9 8 7 6 5 5 6 5 5 4 4 5 6 4 1 5 2 3 4 2 4 7 9 6 2 4
3 4 4 2 5 8 11 14 13 12 12 10 9 9 9 9 9 8 8 8 7 6 6 6 6 5 5 5 5 5 5 2 2 5 3 3 3 4 5 8 10 8 6 5
3 3 4 7 5 9 13 12 9 12 10 9 9 8 9 8 9 9 7 7 6 6 6 6 6 6 5 7 6 6 5 2 5 3 3 3 3 3 4 3 4 2 9 2
4 2 5 5 10 11 11 12 13 11 10 9 8 8 8 8 8 7 6 6 6 6 6 6 7 7 6 8 7 7 7 5 4 3 2 3 4 4 3 3 3 4 4 7
3 3 5 7 10 11 12 13 11 10 9 9 8 8 8 8 7 7 7 7 6 6 7 7 7 6 7 7 8 8 8 6 5 7 4 4 3 4 4 3 3 3 4 4
5 6 6 6 8 10 11 10 9 10 9 9 10 10 9 9 8 8 8 9 8 7 6 7 7 7 8 8 9 7 6 4 7 7 7 5 4 4 4 5 4 3 3 5
7 8 8 6 4 6 7 8 8 9 8 8 9 10 10 10 10 9 9 9 9 9 9 9 8 8 9 9 9 7 6 6 6 6 6 6 6 6 6 6 5 5 4 5
15 14 13 10 7 5 1 5 7 5 5 4 6 8 9 9 9 9 9 10 11 12 12 11 11 11 11 11 10 8 8 8 7 6 6 5 7 8 8 7 7 6 6 5
14 15 13 13 12 11 6 3 1 4 6 6 5 4 5 8 7 9 10 12 12 11 10 10 12 13 14 13 15 11 10 10 9 8 7 7 7 7 8 7 8 8 7 6
12 11 11 8 7 7 5 5 4 3 4 5 6 7 7 8 9 7 8 9 12 13 14 10 11 11 11 12 12 12 12 11 9 10 9 9 8 9 9 8 8 8 6 6
9 8 5 6 6 5 5 5 5 3 3 2 0 2 4 6 6 7 10 11 9 4 6 8 10 14 12 8 11 11 12 13 11 10 10 10 10 9 8 8 7 7 7 8
5 4 4 4 5 5 5 4 3 4 5 5 5 6 6 7 7 7 9 9 8 8 8 8 9 11 12 8 9 11 14 15 12 12 12 12 11 10 9 8 7 7 7 8
6 6 6 5 6 6 6 7 8 8 7 7 9 8 8 8 7 7 6 6 10 9 9 9 8 14 11 7 9 11 12 15 10 12 12 12 11 11 10 9 8 9 9 8
6 6 4 7 7 7 7 8 9 8 7 8 8 8 10 8 8 8 8 9 7 8 11 11 15 14 10 12 13 14 13 12 10 11 13 13 12 12 11 10 10 10 10 9
7 7 6 7 8 7 7 8 8 7 9 9 8 9 10 8 8 8 9 10 12 11 11 11 11 10 11 12 13 13 13 12 9 13 14 13 12 12 9 11 11 11 11 11
5 10 7 6 7 9 9 10 8 9 9 8 10 9 8 9 10 9 10 11 10 11 11 11 10 10 11 11 11 13 12 13 14 11 8 10 12 8 8 8 9 11 11 10
Wind_Direction
249 292 262 271 222 211 236 269 279 343 313 335 64 183 180 171 168 167 170 175 171 168 155 148 139 129 97 39 15 356 354 348 5 343 341 330 331 329 328 322 326 322 319 317
216 216 237 238 235 229 226 245 259 273 281 63 79 173 175 180 177 177 176 179 177 169 166 162 160 161 112 3 352 345 338 335 337 332 326 328 339 335 326 327 327 328 329 327
225 198 225 239 232 230 217 229 251 269 39 122 161 197 191 183 184 186 183 178 178 179 179 159 159 137 165 294 303 307 317 319 322 321 324 333 330 327 323 321 328 326 321 328
272 176 222 96 15 234 236 247 232 253 230 235 300 183 199 192 189 188 184 180 174 175 167 159 146 137 152 252 276 295 302 314 328 321 333 335 329 331 325 325 319 317 315 319
223 218 243 175 170 198 211 250 225 237 219 186 144 142 173 192 189 187 185 178 173 164 159 148 148 148 191 214 235 262 288 319 314 311 315 318 318 326 318 318 319 305 308 313
183 269 253 38 109 104 254 241 89 274 228 180 184 227 130 183 181 178 174 164 164 154 146 150 152 170 202 219 241 258 311 292 293 287 299 304 316 313 324 321 310 335 333 349
220 251 261 108 128 164 219 73 84 64 152 183 210 29 78 151 164 157 151 152 151 152 147 143 158 179 217 231 261 343 292 294 294 281 302 306 311 319 330 312 325 334 340 341
239 258 243 138 141 224 58 105 72 78 120 155 96 115 122 135 141 143 150 145 154 145 143 147 162 197 211 231 182 261 247 270 280 297 300 321 303 315 301 323 296 310 340 325
288 43 96 175 29 80 334 112 133 129 120 132 125 125 130 134 139 145 149 153 153 149 147 157 176 208 208 178 229 261 265 261 287 302 295 295 309 346 315 299 304 327 335 340
269 141 163 184 180 266 162 130 135 129 131 133 125 130 132 138 143 148 151 155 151 149 158 166 187 194 226 229 253 272 282 287 290 276 314 285 291 111 323 316 332 334 340 337
246 168 198 183 195 154 143 137 128 122 125 123 134 140 147 150 153 152 153 152 154 166 180 185 186 199 212 248 255 260 257 264 264 257 275 297 285 339 189 0 352 336 352 333
31 38 346 32 152 164 155 146 139 132 125 124 131 142 154 153 155 158 161 160 173 182 187 187 195 201 209 223 240 266 253 244 8 298 295 326 304 186 151 156 191 209 216 337
1 10 3 332 137 170 157 150 145 139 136 136 131 145 157 153 159 152 167 177 189 200 201 192 205 215 204 222 227 236 268 286 307 255 315 309 316 305 311 185 200 188 192 192
250 224 199 192 179 159 153 141 148 128 129 134 136 147 147 154 147 173 186 189 198 198 203 202 216 228 218 214 215 231 240 175 273 305 319 315 318 315 303 334 326 186 211 216
130 281 307 143 149 152 150 154 146 141 138 138 146 150 157 160 171 180 184 191 188 208 214 218 218 224 208 219 219 233 240 254 261 284 316 321 304 298 317 332 336 334 319 193
98 106 130 146 150 159 167 174 165 152 157 151 155 164 166 170 174 179 186 189 200 211 220 226 227 221 206 221 224 237 228 227 270 289 268 263 273 296 304 308 317 352 336 4
183 132 126 133 159 173 182 185 176 169 166 168 171 169 177 184 187 195 201 200 208 226 227 225 224 209 209 220 226 242 251 229 196 270 263 262 276 277 287 298 303 325 332 79
82 60 57 46 119 168 186 190 200 182 181 183 181 178 190 199 214 212 217 218 218 228 231 228 218 213 217 224 230 242 249 252 251 251 263 259 252 259 267 276 281 283 295 141
71 65 55 52 52 39 93 217 213 200 195 219 216 214 217 224 224 233 233 224 225 231 237 223 201 209 225 223 229 237 247 250 247 248 258 265 253 248 259 265 268 270 277 283
70 67 55 39 38 37 6 13 306 218 219 233 229 235 218 260 259 242 237 241 247 250 245 229 204 215 222 225 195 241 246 249 253 256 255 269 264 254 259 236 264 284 279 274
81 80 68 44 35 48 34 3 358 270 220 212 212 225 236 235 248 252 238 247 248 239 244 233 226 225 223 226 201 225 243 241 238 257 256 248 244 242 255 260 267 261 262 268
63 64 62 49 33 20 8 355 14 28 43 70 242 273 281 281 279 263 250 263 280 179 246 230 227 230 245 234 241 245 238 243 238 239 248 248 251 256 257 255 258 261 256 257
36 36 26 18 3 351 337 347 326 332 325 316 307 307 305 310 302 290 288 274 238 230 247 246 237 227 221 226 240 247 252 249 237 241 235 241 249 251 247 248 239 246 250 255
5 20 8 342 334 330 341 335 318 304 291 287 278 281 286 291 297 291 285 233 236 255 260 264 244 217 214 234 231 232 235 248 236 243 247 239 244 247 243 241 234 237 244 236
349 332 340 349 326 1 342 350 311 295 308 292 281 270 258 257 273 291 300 294 269 243 268 250 223 233 244 239 235 244 246 240 229 232 244 240 236 232 232 241 243 241 240 241
17 9 13 4 3 356 352 347 344 342 344 333 330 328 317 309 290 280 276 274 279 278 272 270 268 253 251 252 255 251 244 234 222 234 239 248 237 232 224 239 240 231 230 239
40 33 356 7 13 0 351 332 324 339 329 339 330 320 304 304 305 293 283 283 287 289 286 277 270 261 264 261 261 249 240 233 229 243 255 230 242 223 220 241 245 242 241 245